Погода в Венюково

Россия / Хабаровский край     47°28′58″N   134°34′26″E
темп.,
°C
ветер,
м/с
пор.,
м/с
влажн.,
%
обл.,
%
осадки,
мм/ч
давл.,
гПа
погр.,
м
27 января, чт
чт2701:00−17юз1198100 0.2 102317
04:00−18юз2299100 0.3 102323
07:00−19юз2398100 0.1 102455
10:00−20юз259879 0.1 1025126
13:00−16зюз468897 0.0 1024415
16:00−15зюз478787 0.0 1023564
19:00−21ююз359914 0.0 102449
22:00−21ююз369832 0.0 102262
28 января, пт
пт2801:00−21юз479721 0.0 1021100
04:00−21ююз48956 0.0 1021118
07:00−21ююз489733 0.0 1020132
10:00−20юз499699 0.0 1019227
13:00−15юз698682 0.0 1017586
16:00−15зюз5992100 0.1 1016818
19:00−15зюз5993100 0.4 1015590
22:00−19зюз3894100 0.4 1014128
29 января, сб
сб2901:00−21юз4893100 0.0 1014161
04:00−23юз369798 0.1 1014106
07:00−25ююз369876 0.0 101370
10:00−23ююз369726 0.0 1014174
13:00−19зюз458992 0.0 1013490
16:00−18зсз369171 0.0 1013403
19:00−29зюз0110042 0.0 10149
22:00−30ююз1110039 0.0 10149
30 января, вс
вс3001:00−31ююз2210055 0.0 101511
04:00−31ююз2210014 0.0 101613
07:00−32ююз221008 0.0 101711
10:00−28юз111005 0.0 101834
13:00−20з248718 0.0 1018314
16:00−20сз239110 0.0 1019161
19:00−30ю001007 0.0 10229
22:00−31ю111008 0.0 10239
31 января, пн
пн3101:00−33ююв1110015 0.0 10249
04:00−33ююв1110028 0.0 10259
07:00−34ююз111009 0.0 10269
10:00−29зюз11999 0.0 102631
13:00−19з23855 0.0 1026258
16:00−17зсз24866 0.0 1025221
19:00−26юз1110018 0.0 10259
22:00−26ю221009 0.0 102511